Location: Unspecified
(43.4680°N, 87.1740°E)
Time: 21:27:15
(UTC+00:00)

Meteor 1-12 Rocket - Pass Details

Date: 17 April 2021
Orbit: 855 x 925 km, 81.2° (Epoch: 11 May)

Event Time Altitude Azimuth Distance (km) Brightness Sun altitude
Rises 21:25:12 0° 348° (NNW) 3,583 7.8 -20.0°
Reaches altitude 10° 21:27:42 10° 347° (NNW) 2,635 7.1 -19.7°
Maximum altitude 21:33:44 77° 262° (W) 947 4.3 -18.8°
Drops below altitude 10° 21:39:39 10° 178° (S) 2,590 6.4 -17.9°
Enters shadow 21:40:26 - 177° (S) 2,891 6.7 -17.8°
